Simultaneous Nadir Overpasses (SNOs) Predictions

Prediction of SNOs between AURA and NPP Satellite Orbit:

Table of predicted SNOs for the next 14.0 days since TLE Epoch: 11/30/2024
Index Date (AURA) Time (AURA) Lat,Lon (AURA) SZA (AURA ) Date (NPP) Time (NPP) Lat,Lon (NPP) SZA (NPP ) Distance(km) Time Diff (sec)
1 11/30/2024 17:18:59 -80.91, 14.47 69.60 11/30/2024 17:18:42 -80.91, 14.46 69.58 0.33 17
2 11/30/2024 18:08:18 80.96,-177.21 110.32 11/30/2024 18:09:24 80.96,-177.12 110.27 1.75 66
3 12/03/2024 05:21:51 80.92, 13.99 110.77 12/03/2024 05:21:58 80.92, 13.82 110.80 2.87 7
4 12/05/2024 16:35:21 80.91,-154.59 111.16 12/05/2024 16:34:30 80.91,-154.60 111.19 0.26 51
5 12/05/2024 17:24:41 -80.95, 13.67 68.93 12/05/2024 17:25:13 -80.94, 13.50 68.92 3.11 32
6 12/08/2024 04:38:08 -80.92,-155.04 68.57 12/08/2024 04:37:44 -80.93,-154.99 68.56 0.94 24
7 12/08/2024 05:27:27 80.97, 13.23 111.35 12/08/2024 05:28:26 80.97, 13.33 111.30 1.76 59
8 12/10/2024 16:40:52 80.95,-155.28 111.64 12/10/2024 16:40:58 80.95,-155.30 111.64 0.74 6
9 12/13/2024 03:54:16 80.91, 35.73 111.96 12/13/2024 03:53:31 80.90, 35.61 112.01 2.23 45



Historial Predications of SNOs between AURA and NPP
